Year,Month,Day,Hour,Minute,Value (Times are PST for temperature in C)
2021,02,03,09,38,5.70
2021,02,03,09,39,5.70
2021,02,03,09,40,5.70
2021,02,03,09,41,5.70
2021,02,03,09,42,5.80
2021,02,03,09,43,5.90
2021,02,03,09,44,6.00
2021,02,03,09,45,6.10
2021,02,03,09,46,6.10
2021,02,03,09,47,6.10
2021,02,03,09,48,6.20
2021,02,03,09,49,6.20
2021,02,03,09,50,6.30
2021,02,03,09,51,6.30
2021,02,03,09,52,6.30
2021,02,03,09,53,6.30
2021,02,03,09,54,6.40
2021,02,03,09,55,6.50
2021,02,03,09,56,6.50
2021,02,03,09,57,6.60
2021,02,03,09,58,6.70
2021,02,03,09,59,6.90
2021,02,03,10,00,7.10
2021,02,03,10,01,7.20
2021,02,03,10,02,7.30
2021,02,03,10,03,7.40
2021,02,03,10,04,7.40
2021,02,03,10,05,7.40
2021,02,03,10,06,7.40
2021,02,03,10,07,7.40
2021,02,03,10,08,7.40
2021,02,03,10,09,7.40
2021,02,03,10,10,7.40
2021,02,03,10,11,7.40
2021,02,03,10,12,7.30
2021,02,03,10,13,7.30
2021,02,03,10,14,7.20
2021,02,03,10,15,7.10
2021,02,03,10,16,7.10
2021,02,03,10,17,7.00
2021,02,03,10,18,7.00
2021,02,03,10,19,6.90
2021,02,03,10,20,7.00
2021,02,03,10,21,7.00
2021,02,03,10,22,7.00
2021,02,03,10,23,7.00
2021,02,03,10,24,7.00
2021,02,03,10,25,7.00
2021,02,03,10,26,7.10
2021,02,03,10,27,7.10
2021,02,03,10,28,7.20
2021,02,03,10,29,7.30
2021,02,03,10,30,7.30
2021,02,03,10,31,7.40
2021,02,03,10,32,7.40
2021,02,03,10,33,7.50
2021,02,03,10,34,7.60
2021,02,03,10,35,7.70
2021,02,03,10,36,7.70
2021,02,03,10,37,7.80
2021,02,03,10,38,7.90
2021,02,03,10,39,8.00
2021,02,03,10,40,8.10
2021,02,03,10,41,8.10
2021,02,03,10,42,8.10
2021,02,03,10,43,8.10
2021,02,03,10,44,8.00
2021,02,03,10,45,7.90
2021,02,03,10,46,7.90
2021,02,03,10,47,7.90
2021,02,03,10,48,7.90
2021,02,03,10,49,7.90
2021,02,03,10,50,7.90
2021,02,03,10,51,7.90
2021,02,03,10,52,7.90
2021,02,03,10,53,7.90
2021,02,03,10,54,7.90
2021,02,03,10,55,7.90
2021,02,03,10,56,8.00
2021,02,03,10,57,8.00
2021,02,03,10,58,8.10
2021,02,03,10,59,8.20
2021,02,03,11,00,8.20
2021,02,03,11,01,8.20
2021,02,03,11,02,8.20
2021,02,03,11,03,8.10
2021,02,03,11,04,8.10
2021,02,03,11,05,8.10
2021,02,03,11,06,8.10
2021,02,03,11,07,8.00
2021,02,03,11,08,8.00
2021,02,03,11,09,7.80
2021,02,03,11,10,7.80
2021,02,03,11,11,7.80
2021,02,03,11,12,7.90
2021,02,03,11,13,8.00
2021,02,03,11,14,8.10
2021,02,03,11,15,8.20
2021,02,03,11,16,8.40
2021,02,03,11,17,8.50
2021,02,03,11,18,8.60
2021,02,03,11,19,8.60
2021,02,03,11,20,8.70
2021,02,03,11,21,8.70
2021,02,03,11,22,8.80
2021,02,03,11,23,8.80
2021,02,03,11,24,8.80
2021,02,03,11,25,8.70
2021,02,03,11,26,8.60
2021,02,03,11,27,8.60
2021,02,03,11,28,8.60
2021,02,03,11,29,8.60
2021,02,03,11,30,8.60
2021,02,03,11,31,8.60
2021,02,03,11,32,8.60
2021,02,03,11,33,8.60
2021,02,03,11,34,8.60
2021,02,03,11,35,8.70
2021,02,03,11,36,8.70
2021,02,03,11,37,8.60
2021,02,03,11,38,8.60
2021,02,03,11,39,8.50
2021,02,03,11,40,8.50
2021,02,03,11,41,8.50
2021,02,03,11,42,8.50
2021,02,03,11,43,8.60
2021,02,03,11,44,8.60
2021,02,03,11,45,8.70
2021,02,03,11,46,8.70
2021,02,03,11,47,8.80
2021,02,03,11,48,8.90
2021,02,03,11,49,8.90
2021,02,03,11,50,8.90
2021,02,03,11,51,8.80
2021,02,03,11,52,8.80
2021,02,03,11,53,8.70
2021,02,03,11,54,8.80
2021,02,03,11,55,8.80
2021,02,03,11,56,8.80
2021,02,03,11,57,8.80
2021,02,03,11,58,8.80
2021,02,03,11,59,8.70
2021,02,03,12,00,8.60
2021,02,03,12,01,8.50
2021,02,03,12,02,8.40
2021,02,03,12,03,8.30
2021,02,03,12,04,8.30
2021,02,03,12,05,8.40
2021,02,03,12,06,8.50
2021,02,03,12,07,8.60
2021,02,03,12,08,8.80
2021,02,03,12,09,8.80
2021,02,03,12,10,8.90
2021,02,03,12,11,9.00
2021,02,03,12,12,9.00
2021,02,03,12,13,9.10
2021,02,03,12,14,9.20
2021,02,03,12,15,9.20
2021,02,03,12,16,9.30
2021,02,03,12,17,9.30
2021,02,03,12,18,9.20
2021,02,03,12,19,9.10
2021,02,03,12,20,9.00
2021,02,03,12,21,9.00
2021,02,03,12,22,8.90
2021,02,03,12,23,8.80
2021,02,03,12,24,8.70
2021,02,03,12,25,8.70
2021,02,03,12,26,8.70
2021,02,03,12,27,8.70
2021,02,03,12,28,8.60
2021,02,03,12,29,8.60
2021,02,03,12,30,8.60
2021,02,03,12,31,8.60
2021,02,03,12,32,8.60
2021,02,03,12,33,8.60
2021,02,03,12,34,8.60
2021,02,03,12,35,8.60
2021,02,03,12,36,8.60
2021,02,03,12,37,8.70
2021,02,03,12,38,8.70
2021,02,03,12,39,8.80
2021,02,03,12,40,8.80
2021,02,03,12,41,8.80
2021,02,03,12,42,8.80
2021,02,03,12,43,8.80
2021,02,03,12,44,8.80
2021,02,03,12,45,8.70
2021,02,03,12,46,8.80
2021,02,03,12,47,8.90
2021,02,03,12,48,8.90
2021,02,03,12,49,8.90
2021,02,03,12,50,8.90
2021,02,03,12,51,8.80
2021,02,03,12,52,8.70
2021,02,03,12,53,8.60
2021,02,03,12,54,8.60
2021,02,03,12,55,8.50
2021,02,03,12,56,8.50
2021,02,03,12,57,8.40
2021,02,03,12,58,8.40
2021,02,03,12,59,8.40
2021,02,03,13,00,8.40
2021,02,03,13,01,8.40
2021,02,03,13,02,8.40
2021,02,03,13,03,8.40
2021,02,03,13,04,8.40
2021,02,03,13,05,8.50
2021,02,03,13,06,8.50
2021,02,03,13,07,8.60
2021,02,03,13,08,8.70
2021,02,03,13,09,8.80
2021,02,03,13,10,8.80
2021,02,03,13,11,8.80
2021,02,03,13,12,8.80
2021,02,03,13,13,8.80
2021,02,03,13,14,8.80
2021,02,03,13,15,8.80
2021,02,03,13,16,8.80
2021,02,03,13,17,8.80
2021,02,03,13,18,8.70
2021,02,03,13,19,8.70
2021,02,03,13,20,8.60
2021,02,03,13,21,8.50
2021,02,03,13,22,8.40
2021,02,03,13,23,8.40
2021,02,03,13,24,8.40
2021,02,03,13,25,8.40
2021,02,03,13,26,8.40
2021,02,03,13,27,8.40
2021,02,03,13,28,8.50
2021,02,03,13,29,8.60
2021,02,03,13,30,8.70
2021,02,03,13,31,8.80
2021,02,03,13,32,8.90
2021,02,03,13,33,9.00
2021,02,03,13,34,9.10
2021,02,03,13,35,9.10
2021,02,03,13,36,9.10
2021,02,03,13,37,9.10
2021,02,03,13,38,9.00
2021,02,03,13,39,8.90
2021,02,03,13,40,8.80
2021,02,03,13,41,8.80
2021,02,03,13,42,8.80
2021,02,03,13,43,8.80
2021,02,03,13,44,8.80
2021,02,03,13,45,8.80
2021,02,03,13,46,8.90
2021,02,03,13,47,8.90
2021,02,03,13,48,9.00
2021,02,03,13,49,9.00
2021,02,03,13,50,8.90
2021,02,03,13,51,8.80
2021,02,03,13,52,8.70
2021,02,03,13,53,8.70
2021,02,03,13,54,8.70
2021,02,03,13,55,8.70
2021,02,03,13,56,8.70
2021,02,03,13,57,8.70
2021,02,03,13,58,8.70
2021,02,03,13,59,8.60
2021,02,03,14,00,8.60
2021,02,03,14,01,8.60
2021,02,03,14,02,8.60
2021,02,03,14,03,8.50
2021,02,03,14,04,8.50
2021,02,03,14,05,8.40
2021,02,03,14,06,8.30
2021,02,03,14,07,8.30
2021,02,03,14,08,8.30
2021,02,03,14,09,8.30
2021,02,03,14,10,8.30
2021,02,03,14,11,8.40
2021,02,03,14,12,8.40
2021,02,03,14,13,8.50
2021,02,03,14,14,8.50
2021,02,03,14,15,8.50
2021,02,03,14,16,8.50
2021,02,03,14,17,8.60
2021,02,03,14,18,8.60
2021,02,03,14,19,8.70
2021,02,03,14,20,8.70
2021,02,03,14,21,8.80
2021,02,03,14,22,8.80
2021,02,03,14,23,8.80
2021,02,03,14,24,8.70
2021,02,03,14,25,8.70
2021,02,03,14,26,8.70
2021,02,03,14,27,8.70
2021,02,03,14,28,8.70
2021,02,03,14,29,8.70
2021,02,03,14,30,8.70
2021,02,03,14,31,8.80
2021,02,03,14,32,8.80
2021,02,03,14,33,8.70
2021,02,03,14,34,8.60
2021,02,03,14,35,8.50
2021,02,03,14,36,8.50
2021,02,03,14,37,8.50
2021,02,03,14,38,8.40
2021,02,03,14,39,8.40
2021,02,03,14,40,8.40
2021,02,03,14,41,8.50
2021,02,03,14,42,8.50
2021,02,03,14,43,8.60
2021,02,03,14,44,8.60
2021,02,03,14,45,8.60
2021,02,03,14,46,8.60
2021,02,03,14,47,8.60
2021,02,03,14,48,8.50
2021,02,03,14,49,8.40
2021,02,03,14,50,8.40
2021,02,03,14,51,8.30
2021,02,03,14,52,8.30
2021,02,03,14,53,8.30
2021,02,03,14,54,8.30
2021,02,03,14,55,8.30
2021,02,03,14,56,8.30
2021,02,03,14,57,8.30
2021,02,03,14,58,8.30
2021,02,03,14,59,8.40
2021,02,03,15,00,8.40
2021,02,03,15,01,8.50
2021,02,03,15,02,8.50
2021,02,03,15,03,8.50
2021,02,03,15,04,8.50
2021,02,03,15,05,8.60
2021,02,03,15,06,8.60
2021,02,03,15,07,8.60
2021,02,03,15,08,8.70
2021,02,03,15,09,8.80
2021,02,03,15,10,8.90
2021,02,03,15,11,9.00
2021,02,03,15,12,9.00
2021,02,03,15,13,9.00
2021,02,03,15,14,9.00
2021,02,03,15,15,9.00
2021,02,03,15,16,9.00
2021,02,03,15,17,9.00
2021,02,03,15,18,9.00
2021,02,03,15,19,9.00
2021,02,03,15,20,9.10
2021,02,03,15,21,9.10
2021,02,03,15,22,9.10
2021,02,03,15,23,9.10
2021,02,03,15,24,9.10
2021,02,03,15,25,9.10
2021,02,03,15,26,9.10
2021,02,03,15,27,9.20
2021,02,03,15,28,9.20
2021,02,03,15,29,9.20
2021,02,03,15,30,9.10
2021,02,03,15,31,9.10
2021,02,03,15,32,9.00
2021,02,03,15,33,9.10
2021,02,03,15,34,9.10
2021,02,03,15,35,9.10
2021,02,03,15,36,9.00
2021,02,03,15,37,9.00
2021,02,03,15,38,9.00
2021,02,03,15,39,9.00
2021,02,03,15,40,9.00
2021,02,03,15,41,8.90
2021,02,03,15,42,8.90
2021,02,03,15,43,8.80
2021,02,03,15,44,8.80
2021,02,03,15,45,8.70
2021,02,03,15,46,8.70
2021,02,03,15,47,8.60
2021,02,03,15,48,8.60
2021,02,03,15,49,8.60
2021,02,03,15,50,8.50
2021,02,03,15,51,8.50
2021,02,03,15,52,8.50
2021,02,03,15,53,8.40
2021,02,03,15,54,8.40
2021,02,03,15,55,8.40
2021,02,03,15,56,8.30
2021,02,03,15,57,8.30
2021,02,03,15,58,8.30
2021,02,03,15,59,8.30
2021,02,03,16,00,8.30
2021,02,03,16,01,8.20
2021,02,03,16,02,8.20
2021,02,03,16,03,8.20
2021,02,03,16,04,8.20
2021,02,03,16,05,8.20
2021,02,03,16,06,8.20
2021,02,03,16,07,8.20
2021,02,03,16,08,8.20
2021,02,03,16,09,8.20
2021,02,03,16,10,8.20
2021,02,03,16,11,8.20
2021,02,03,16,12,8.20
2021,02,03,16,13,8.20
2021,02,03,16,14,8.20
2021,02,03,16,15,8.10
2021,02,03,16,16,8.10
2021,02,03,16,17,8.10
2021,02,03,16,18,8.10
2021,02,03,16,19,8.10
2021,02,03,16,20,8.10
2021,02,03,16,21,8.10
2021,02,03,16,22,8.10
2021,02,03,16,23,8.10
2021,02,03,16,24,8.10
2021,02,03,16,25,8.00
2021,02,03,16,26,8.00
2021,02,03,16,27,8.00
2021,02,03,16,28,8.00
2021,02,03,16,29,8.00
2021,02,03,16,30,8.00
2021,02,03,16,31,8.10
2021,02,03,16,32,8.10
2021,02,03,16,33,8.10
2021,02,03,16,34,8.10
2021,02,03,16,35,8.10
2021,02,03,16,36,8.10
2021,02,03,16,37,8.10
2021,02,03,16,38,8.10
2021,02,03,16,39,8.10
2021,02,03,16,40,8.10
2021,02,03,16,41,8.10
2021,02,03,16,42,8.10
2021,02,03,16,43,8.10
2021,02,03,16,44,8.00
2021,02,03,16,45,8.00
2021,02,03,16,46,8.00
2021,02,03,16,47,8.00
2021,02,03,16,48,7.90
2021,02,03,16,49,7.90
2021,02,03,16,50,7.90
2021,02,03,16,51,7.90
2021,02,03,16,52,7.90
2021,02,03,16,53,7.90
2021,02,03,16,54,7.90
2021,02,03,16,55,7.90
2021,02,03,16,56,7.80
2021,02,03,16,57,7.80
2021,02,03,16,58,7.80
2021,02,03,16,59,7.80
2021,02,03,17,00,7.80
2021,02,03,17,01,7.80
2021,02,03,17,02,7.80
2021,02,03,17,03,7.80
2021,02,03,17,04,7.80
2021,02,03,17,05,7.80
2021,02,03,17,06,7.80
2021,02,03,17,07,7.80
2021,02,03,17,08,7.80
